DELTA 1 DEB, 7025

Orbit data source: Space-Track

DELTA 1 DEB, 7025 is space debris in LEO originally from a launch on Tue, 06 Nov 1973 UTC launched from the Air Force Western Test Range (AFWTR). Debris objects in space refer to the collection of defunct objects orbiting the Earth. Examples of debris include non-operational satellites, rocket bodies, and fragments generated from explosions, collisions, or faulty payload assembly.

Loading next visibility...
Identifier
7025, 1973-086R
Orbit
LEO
Country
Flag of USUS
Related business
Manufacturer
Unknown
Mission
Spacecraft
Bus & Motor
Unknown
Mass
Unknown
Launch date (UTC)
1973-11-06 (53 years ago)
Launch vehicle
Unknown
Launch site
Air Force Western Test Range (AFWTR)
Object type
Payload
Rocket body
Debris
Shape & HBR
Unknown shape, 0.3 m
Radar Cross Section
Medium (>0.1 m² and <1 m²)

Expand to show TLE details & history
Last TLE update: 23 hours ago

TLE from 23 hours ago
0 DELTA 1 DEB
1 07025U 73086R   26206.43473160  .00000039  00000-0  11790-2 0  9994
2 07025 101.9027 184.1480 0462448 125.3305  27.0201 11.54277615221623
Epoch: 2026-07-25T10:26Z
TLE epoch observation values (Epoch: 2026-07-25T10:26:00.810Z)
Latitude
24.56383°
Longitude
-90.00099°
Altitude
1,557.973 km
Speed
7.233 km/s
True Right ascension
00h 38m 35s
True Declination
24° 26' 50"
Sunlit
Object was in daylight at epoch
Visualization orbit readout
Latitude
Unknown
Longitude
Unknown
Altitude
Unknown
Speed
Unknown
Apparent Right ascension
Unknown
Apparent Declination
Unknown
Sunlit
N/A
Visualization observer readout
Local Sidereal Time
22:23:20
Azimuth
Unknown
Elevation
Unknown
Doppler factor
Unknown
Orbital elements
Apogee altitude
2,272.33 km
Perigee altitude
1,507.616 km
Semi-major axis
8,268.11 km
Eccentricity
0.04624
Inclination
101.9027°
RAAN
184.148°
Arg. of periapsis
125.3305°
True anomaly
29.55714°
Mean anomaly
27.0201°
Eccentric anomaly
28.27525°
Mean motion
2.88691 °/min
Orbital period
124.7 mins
BSTAR
0.001179
Loading maneuver chart data...
Computing Atmospheric mass density...
Loading historical data...
Loading historical data...
Loading historical data...
Loading historical data...
Loading historical data...
Loading historical data...
Loading historical data...

Documentation

Showing up to 5 results
|